Regional Weather Roundup
Issued by NWS Albany, NY

Home | Current Version | Previous Version | Graphics & Text | Print | Product List | Glossary Off
Versions: 1 2 3 4 5 6 7 8 9 10 11 12 13 14 15 16 17 18 19 20 21 22 23 24 25 26 27 28

000
ASUS41 KALY 260310
RWRALY

NEW YORK STATE HOURLY WEATHER ROUNDUP
NATIONAL WEATHER SERVICE ALBANY NY
1100 PM EDT SUN JUN 25 2017

NOTE: "FAIR" INDICATES FEW OR NO CLOUDS BELOW 12,000 FEET WITH NO
SIGNIFICANT WEATHER AND/OR NO OBSTRUCTIONS TO VISIBILITY.

NYZ032-033-038>043-046>054-057>066-NYZ062>081-082-084-260400-
EAST


CITY           SKY/WX    TMP DP  RH WIND       PRES   REMARKS
ALBANY         CLOUDY    60  55  83 SE5       29.98F
GLENS FALLS    CLOUDY    59  53  80 S6        29.95S
POUGHKEEPSIE   MOCLDY    67  54  63 N9        29.97R
NEWBURGH       CLEAR     64  55  72 W7        30.00R
MONTGOMERY     PTCLDY    68  51  54 NW15G24   29.99R
ISLIP          MOCLDY    70  65  84 SW7       29.95S
NEW YORK CITY  CLOUDY    79  53  40 W10       29.94R
CENTRAL PARK   CLOUDY    78  51  38 W8        29.98R
$$

NYZ005>009-017-018-044>046-055-056-260400-
CENTRAL


CITY           SKY/WX    TMP DP  RH WIND       PRES   REMARKS
FULTON         CLOUDY    55  53  93 S5        29.98S
SYRACUSE       PTCLDY    58  53  84 SW7       29.98S
ROME           CLEAR     53  52  96 NE3       29.99S
ELMIRA         NOT AVBL
BINGHAMTON     NOT AVBL
MONTICELLO     PTCLDY    57  50  77 NW8       30.05R
$$

NYZ026>034-041>043-087-260400-
NORTH


CITY           SKY/WX    TMP DP  RH WIND       PRES   REMARKS
WATERTOWN      MOCLDY    58  55  90 CALM      29.95R
FORT DRUM      NOT AVBL
OGDENSBURG     FAIR      55  54  94 CALM      29.93R
MASSENA        CLOUDY    56  53  90 SW9       29.92R
SARANAC LAKE   CLEAR     53  50  89 SW7       29.93R
PLATTSBURGH    MOCLDY    58  54  86 SW3       29.89F
$$

NYZ001>004-010>016-019>021-085-260400-
WEST


CITY           SKY/WX    TMP DP  RH WIND       PRES   REMARKS
NIAGARA FALLS  CLOUDY    65  48  54 W8        29.99R
BUFFALO        MOCLDY    65  49  56 W8        30.00R
DUNKIRK        CLOUDY    64  53  67 SW6       30.02S
JAMESTOWN      CLOUDY    55  46  71 W6        30.06R
WELLSVILLE     CLEAR     53  46  77 W6        30.07R
ROCHESTER      MOCLDY    59  56  89 SW6       29.99S
PENN YAN       CLEAR     56  50  80 S3        30.02S
$$

             KEY
       WCI = WIND CHILL INDEX
       VSB = VISIBILITY
       HX  = HEAT INDEX
$$




USA.gov is the U.S. government's official web portal to all federal, state and local government web resources and services.